• Em Portugal
  • Lista de países
  • Para 7 dias
  • Temperatura da água
  • Mapas de satélite
  • Mapa do tempo
  • Widgets de tempo
  • user-avatar
    Iniciar Sessão

    Previsão horária em Meshhed

    Hoje, 22 Setembro, Sexta-feira

    Tempo Temperatura Precipitação Vento Pressão Humidade
    00:00 +14°C° 0 mm 2 m/s 614 mmHg 24%
    01:00 +14°C° 0 mm 2 m/s 613 mmHg 25%
    02:00 +13°C° 0 mm 2 m/s 613 mmHg 26%
    03:00 +13°C° 0 mm 1 m/s 613 mmHg 27%
    04:00 +12°C° 0 mm 1 m/s 613 mmHg 28%
    05:00 +13°C° 0 mm 1 m/s 613 mmHg 27%
    06:00 +13°C° 0 mm 1 m/s 614 mmHg 26%
    07:00 +14°C° 0 mm 1 m/s 614 mmHg 25%
    08:00 +15°C° 0 mm 1 m/s 615 mmHg 22%
    09:00 +18°C° 0 mm 1 m/s 615 mmHg 19%
    10:00 +19°C° 0 mm 1 m/s 616 mmHg 16%
    11:00 +20°C° 0 mm 1 m/s 616 mmHg 15%
    12:00 +21°C° 0 mm 1 m/s 616 mmHg 14%
    13:00 +22°C° 0 mm 1 m/s 616 mmHg 13%
    14:00 +22°C° 0 mm 1 m/s 616 mmHg 12%
    15:00 +21°C° 0 mm 2 m/s 616 mmHg 12%
    16:00 +21°C° 0 mm 2 m/s 616 mmHg 12%
    17:00 +20°C° 0 mm 2 m/s 615 mmHg 13%
    18:00 +19°C° 0 mm 2 m/s 615 mmHg 14%
    19:00 +18°C° 0 mm 2 m/s 615 mmHg 15%
    20:00 +17°C° 0 mm 2 m/s 615 mmHg 17%
    21:00 +16°C° 0 mm 2 m/s 614 mmHg 18%
    22:00 +16°C° 0 mm 2 m/s 614 mmHg 19%
    23:00 +15°C° 0 mm 2 m/s 614 mmHg 20%

    Amanhã, 23 Setembro, Sábado

    Tempo Temperatura Precipitação Vento Pressão Humidade
    00:00 +14°C° 0 mm 1 m/s 614 mmHg 21%
    01:00 +14°C° 0 mm 1 m/s 613 mmHg 22%
    02:00 +13°C° 0 mm 1 m/s 613 mmHg 23%
    03:00 +13°C° 0 mm 1 m/s 613 mmHg 24%
    04:00 +12°C° 0 mm 1 m/s 613 mmHg 25%
    05:00 +13°C° 0 mm 1 m/s 613 mmHg 24%
    06:00 +13°C° 0 mm 1 m/s 614 mmHg 23%
    07:00 +14°C° 0 mm 1 m/s 614 mmHg 22%
    08:00 +15°C° 0 mm 1 m/s 615 mmHg 20%
    09:00 +18°C° 0 mm 1 m/s 616 mmHg 17%
    10:00 +20°C° 0 mm 1 m/s 617 mmHg 14%
    11:00 +21°C° 0 mm 1 m/s 617 mmHg 13%
    12:00 +22°C° 0 mm 1 m/s 617 mmHg 12%
    13:00 +22°C° 0 mm 1 m/s 617 mmHg 11%
    14:00 +23°C° 0 mm 2 m/s 617 mmHg 11%
    15:00 +23°C° 0 mm 2 m/s 617 mmHg 11%
    16:00 +23°C° 0 mm 2 m/s 617 mmHg 10%
    17:00 +21°C° 0 mm 2 m/s 617 mmHg 12%
    18:00 +20°C° 0 mm 3 m/s 617 mmHg 13%
    19:00 +19°C° 0 mm 3 m/s 616 mmHg 14%
    20:00 +18°C° 0 mm 2 m/s 616 mmHg 15%
    21:00 +17°C° 0 mm 2 m/s 616 mmHg 15%
    22:00 +16°C° 0 mm 2 m/s 616 mmHg 16%
    23:00 +15°C° 0 mm 2 m/s 616 mmHg 17%

    Depois de amanhã, 24 Setembro, Domingo

    Tempo Temperatura Precipitação Vento Pressão Humidade
    00:00 +15°C° 0 mm 2 m/s 616 mmHg 18%
    01:00 +14°C° 0 mm 1 m/s 615 mmHg 19%
    02:00 +14°C° 0 mm 1 m/s 615 mmHg 19%
    03:00 +13°C° 0 mm 1 m/s 615 mmHg 20%
    04:00 +13°C° 0 mm 1 m/s 615 mmHg 20%
    05:00 +13°C° 0 mm 1 m/s 615 mmHg 20%
    06:00 +14°C° 0 mm 1 m/s 616 mmHg 19%
    07:00 +14°C° 0 mm 1 m/s 616 mmHg 19%
    08:00 +16°C° 0 mm 1 m/s 617 mmHg 17%
    09:00 +18°C° 0 mm 1 m/s 618 mmHg 15%
    10:00 +19°C° 0 mm 2 m/s 618 mmHg 13%
    11:00 +20°C° 0 mm 2 m/s 619 mmHg 13%
    12:00 +21°C° 0 mm 2 m/s 619 mmHg 12%
    13:00 +23°C° 0 mm 2 m/s 619 mmHg 11%
    14:00 +23°C° 0 mm 2 m/s 618 mmHg 11%
    15:00 +23°C° 0 mm 2 m/s 618 mmHg 11%
    16:00 +22°C° 0 mm 3 m/s 618 mmHg 11%
    17:00 +21°C° 0 mm 3 m/s 618 mmHg 12%
    18:00 +20°C° 0 mm 3 m/s 618 mmHg 13%
    19:00 +19°C° 0 mm 3 m/s 618 mmHg 14%
    20:00 +18°C° 0 mm 3 m/s 618 mmHg 16%
    21:00 +17°C° 0 mm 2 m/s 617 mmHg 17%
    22:00 +16°C° 0 mm 2 m/s 617 mmHg 18%
    23:00 +16°C° 0 mm 2 m/s 617 mmHg 19%

    25 Setembro, Segunda-feira

    Tempo Temperatura Precipitação Vento Pressão Humidade
    00:00 +15°C° 0 mm 2 m/s 617 mmHg 20%
    01:00 +14°C° 0 mm 1 m/s 616 mmHg 21%
    02:00 +14°C° 0 mm 1 m/s 616 mmHg 21%
    03:00 +14°C° 0 mm 1 m/s 616 mmHg 22%
    04:00 +13°C° 0 mm 1 m/s 616 mmHg 23%
    05:00 +13°C° 0 mm 1 m/s 616 mmHg 23%
    06:00 +14°C° 0 mm 1 m/s 617 mmHg 22%
    07:00 +14°C° 0 mm 1 m/s 617 mmHg 22%
    08:00 +16°C° 0 mm 2 m/s 618 mmHg 21%
    09:00 +17°C° 0 mm 2 m/s 618 mmHg 19%
    10:00 +18°C° 0 mm 3 m/s 619 mmHg 18%
    11:00 +19°C° 0 mm 2 m/s 619 mmHg 17%
    12:00 +20°C° 0 mm 2 m/s 619 mmHg 17%
    13:00 +21°C° 0 mm 2 m/s 619 mmHg 17%
    14:00 +21°C° 0 mm 2 m/s 618 mmHg 17%
    15:00 +21°C° 0 mm 3 m/s 618 mmHg 17%
    16:00 +21°C° 0 mm 3 m/s 618 mmHg 17%
    17:00 +20°C° 0 mm 3 m/s 618 mmHg 18%
    18:00 +19°C° 0 mm 3 m/s 617 mmHg 20%
    19:00 +18°C° 0 mm 3 m/s 617 mmHg 21%
    20:00 +17°C° 0 mm 2 m/s 617 mmHg 22%
    21:00 +16°C° 0 mm 2 m/s 617 mmHg 24%
    22:00 +15°C° 0 mm 2 m/s 616 mmHg 25%
    23:00 +15°C° 0 mm 2 m/s 616 mmHg 26%

    26 Setembro, Terça-feira

    Tempo Temperatura Precipitação Vento Pressão Humidade
    00:00 +14°C° 0 mm 2 m/s 616 mmHg 27%
    01:00 +14°C° 0 mm 2 m/s 615 mmHg 28%
    02:00 +13°C° 0 mm 2 m/s 615 mmHg 29%
    03:00 +13°C° 0 mm 2 m/s 615 mmHg 31%
    04:00 +13°C° 0 mm 2 m/s 615 mmHg 32%
    05:00 +13°C° 0 mm 2 m/s 615 mmHg 33%
    06:00 +14°C° 0 mm 2 m/s 616 mmHg 35%
    07:00 +14°C° 0 mm 2 m/s 616 mmHg 36%
    08:00 +15°C° 0 mm 2 m/s 617 mmHg 33%
    09:00 +17°C° 0 mm 2 m/s 618 mmHg 30%
    10:00 +18°C° 0 mm 2 m/s 618 mmHg 27%
    11:00 +19°C° 0 mm 2 m/s 618 mmHg 25%
    12:00 +20°C° 0 mm 2 m/s 618 mmHg 24%
    13:00 +20°C° 0 mm 2 m/s 618 mmHg 22%
    14:00 +20°C° 0 mm 2 m/s 618 mmHg 22%
    15:00 +21°C° 0 mm 2 m/s 618 mmHg 22%
    16:00 +21°C° 0 mm 3 m/s 618 mmHg 22%
    17:00 +20°C° 0 mm 3 m/s 618 mmHg 26%
    18:00 +19°C° 0 mm 3 m/s 618 mmHg 29%
    19:00 +18°C° 0 mm 3 m/s 618 mmHg 32%
    20:00 +17°C° 0 mm 3 m/s 618 mmHg 37%
    21:00 +16°C° 0 mm 3 m/s 617 mmHg 43%
    22:00 +14°C° 0 mm 3 m/s 617 mmHg 48%
    23:00 +13°C° 0 mm 3 m/s 617 mmHg 49%

    27 Setembro, Quarta-feira

    Tempo Temperatura Precipitação Vento Pressão Humidade
    00:00 +13°C° 0 mm 3 m/s 617 mmHg 51%
    01:00 +13°C° 0 mm 2 m/s 616 mmHg 52%
    02:00 +13°C° 0 mm 2 m/s 616 mmHg 52%
    03:00 +12°C° 0 mm 2 m/s 616 mmHg 52%
    04:00 +12°C° 0 mm 1 m/s 615 mmHg 53%
    05:00 +12°C° 0 mm 1 m/s 616 mmHg 50%
    06:00 +12°C° 0 mm 1 m/s 616 mmHg 48%
    07:00 +13°C° 0 mm 1 m/s 616 mmHg 46%
    08:00 +14°C° 0 mm 1 m/s 617 mmHg 42%
    09:00 +16°C° 0 mm 1 m/s 618 mmHg 37%
    10:00 +16°C° 0 mm 0 m/s 618 mmHg 32%
    11:00 +19°C° 0 mm 1 m/s 618 mmHg 29%
    12:00 +21°C° 0 mm 1 m/s 618 mmHg 25%
    13:00 +22°C° 0 mm 1 m/s 618 mmHg 22%
    14:00 +21°C° 0 mm 2 m/s 618 mmHg 21%
    15:00 +21°C° 0 mm 2 m/s 618 mmHg 21%
    16:00 +23°C° 0 mm 2 m/s 618 mmHg 20%
    17:00 +21°C° 0 mm 2 m/s 618 mmHg 22%
    18:00 +20°C° 0 mm 2 m/s 618 mmHg 23%
    19:00 +19°C° 0 mm 2 m/s 618 mmHg 25%
    20:00 +18°C° 0 mm 2 m/s 617 mmHg 26%
    21:00 +17°C° 0 mm 2 m/s 617 mmHg 28%
    22:00 +16°C° 0 mm 2 m/s 617 mmHg 29%
    23:00 +16°C° 0 mm 1 m/s 617 mmHg 31%
    Mostrar mais